Lid_Strength_Index
9 9 9 9 9 11 11 12 13 12 11 11 11 11 12 12 13 13 13 13 14 14
8 9 10 9 9 10 11 12 13 11 11 12 11 12 12 13 13 13 13 13 13 13
8 9 10 10 9 11 12 12 13 11 12 12 12 12 12 13 13 13 13 13 13 12
9 9 10 10 10 10 11 12 12 11 12 12 12 12 13 13 13 13 13 12 12 12
9 10 11 11 10 10 11 12 11 11 12 12 12 12 12 13 13 13 13 13 13 13
11 10 12 12 12 11 12 13 12 12 12 13 13 13 12 13 13 13 13 13 13 13
13 12 11 13 12 12 13 13 12 12 13 13 13 13 13 13 13 14 14 13 13 12
13 13 12 15 13 13 14 13 12 13 14 14 13 13 13 13 13 15 15 15 14 13
13 13 13 14 14 13 14 14 13 13 14 14 13 11 11 12 14 14 15 16 15 13
14 13 13 13 14 13 14 14 13 14 14 13 13 11 11 12 13 13 15 15 15 15
13 12 12 13 13 14 13 13 13 13 13 14 14 11 11 12 13 14 16 15 15 15
13 12 12 13 13 13 13 13 13 12 14 14 14 11 11 12 15 16 17 17 16 16
13 12 12 12 13 13 13 13 13 14 14 14 15 11 11 12 14 16 17 19 18 15
14 13 12 12 12 13 14 13 14 14 14 15 14 12 11 12 15 15 17 17 18 16